{"data":{"norad_id":49018,"intl_designator":"2021-064A","name":"NINGXIA-1 6","alt_names":[],"object_type":"PAYLOAD","status":"ACTIVE","operator":null,"country":"PRC","launch_date":"2021-07-09","launch_site_code":"TAISC","launch_vehicle":null,"mission":null,"orbit_class":"UNKNOWN","rcs_meters":null,"size_class":null,"mass_kg":null,"dimensions":null,"purposes":[],"wikipedia_slug":null,"has_3d_model":false,"image_url":null,"decayed_at":null,"tle_current":{"epoch":"2026-09-20T22:58:00.128352Z","epoch_age_seconds":61728,"freshness":"FRESH","line1":"1 49018U 21064A   26263.95694593 -.00000088  00000+0  25359-4 0  9998","line2":"2 49018  44.9987 154.4318 0008734 325.9638  34.0638 14.08544492267717","mean_motion":14.08544492,"eccentricity":0.0008734,"inclination_deg":44.9987,"raan_deg":154.4318,"arg_perigee_deg":325.9638,"mean_anomaly_deg":34.0638,"bstar":2.5359e-5,"rev_number":26771,"period_min":102.23319236124,"perigee_km":858.03114093911,"apogee_km":870.68232899535,"semimajor_km":7242.4937349672,"source":"CELESTRAK","updated_at":"2026-09-21T09:00:07.940206Z"}}}